Location: Newark
(50.8086°N, 4.3114°E)
Time: 11:11:39
(UTC+00:00)

Oscar 11 - Visible Passes

Search period start: 29 January 2020 00:00
Search period end: 08 February 2020 00:00
Orbit: 614 x 624 km, 97.6° (Epoch: 28 January)

Date Brightness Start Highest point End Pass type
(mag) Time Alt. Az. Time Alt. Az. Time Alt. Az.
29 Jan 9.3 06:04:16 10° NNE 06:08:06 29° E 06:11:54 10° SSE visible
29 Jan 7.5 17:03:23 10° SE 17:07:25 40° ENE 17:11:30 10° N visible
29 Jan 9.3 18:40:02 10° SSW 18:43:41 26° W 18:47:22 10° NW visible
30 Jan 8.6 06:21:08 10° NNE 06:25:18 41° E 06:29:26 10° S visible
30 Jan 7.1 17:20:11 10° SSE 17:24:26 57° ENE 17:28:43 10° N visible
30 Jan 9.9 18:57:54 10° SW 19:00:56 18° W 19:04:00 10° NW visible
31 Jan 7.8 06:38:06 10° NNE 06:42:26 61° E 06:46:45 10° S visible
31 Jan 7.0 17:37:09 10° SSE 17:41:29 83° ENE 17:45:52 10° NNW visible
31 Jan 10.4 19:16:14 10° WSW 19:18:14 13° W 19:20:14 10° WNW visible
01 Feb 10.6 05:21:13 10° ENE 05:22:45 12° E 05:24:16 10° ESE visible
01 Feb 7.4 17:54:16 10° S 17:58:35 68° WSW 18:02:57 10° NNW visible
02 Feb 10.2 05:37:13 10° NE 05:40:03 17° E 05:42:53 10° SE visible
02 Feb 8.2 18:11:32 10° S 18:15:43 46° W 18:19:57 10° NNW visible
03 Feb 9.7 05:53:46 10° NE 05:57:19 24° E 06:00:50 10° SSE visible
03 Feb 9.0 18:29:00 10° SSW 18:32:54 32° W 18:36:50 10° NNW visible
04 Feb 9.1 06:10:33 10° NNE 06:14:32 34° E 06:18:30 10° SSE visible
04 Feb 7.3 17:09:37 10° SE 17:13:46 46° ENE 17:17:57 10° N visible
04 Feb 9.6 18:46:41 10° SW 18:50:07 23° W 18:53:36 10° NW visible
05 Feb 8.3 06:27:27 10° NNE 06:31:43 49° E 06:35:56 10° S visible
05 Feb 7.0 17:26:29 10° SSE 17:30:48 67° ENE 17:35:08 10° N visible
05 Feb 10.2 19:04:42 10° SW 19:07:23 16° W 19:10:06 10° NW visible
06 Feb 7.1 17:43:31 10° SSE 17:47:52 85° WSW 17:52:16 10° NNW visible
06 Feb 10.6 19:23:29 10° WSW 19:24:43 11° W 19:25:56 10° WNW visible
07 Feb 10.4 05:27:01 10° NE 05:29:14 14° E 05:31:25 10° ESE visible
07 Feb 7.8 18:00:42 10° S 18:04:58 58° W 18:09:18 10° NNW visible
